GW4497 Weather Reports


time (UTC)temp
F
wind
direction
speed
knots
gust
knots
rain 1hr
in
rain 24hr
in
rain mn
in
humidity
%
barometer
mb
20260504174004 62 280 1.7 3.5 0.00 0.17 0.11 86 1010.8
20260504173504 63 276 1.7 3.5 0.00 0.17 0.11 86 1010.7
20260504173004 63 264 1.7 3.5 0.00 0.17 0.11 85 1011.1
20260504172506 62 252 1.7 2.6 0.00 0.17 0.11 84 1010.7
20260504172219 62 263 1.7 2.6 0.00 0.17 0.11 83 1010.7
20260504171505 62 304 0.9 2.6 0.00 0.17 0.11 83 1010.8
20260504171005 62 332 0.9 1.7 0.01 0.17 0.11 84 1010.9
20260504151003 62 294 2.6 4.3 0.04 0.13 0.06 86 1011.5
20260504150505 63 297 1.7 4.3 0.04 0.13 0.06 86 1011.8
20260504141006 62 207 5.2 8.7 0.00 0.09 0.02 82 1012.0
20260504140504 63 218 3.5 7.8 0.00 0.09 0.02 82 1012.1
20260504130722 64 175 3.5 8.7 0.02 0.09 0.02 81 1012.0
20260504130219 63 232 5.2 13.0 0.02 0.09 0.02 80 1011.8
20260504110716 65 206 3.5 9.6 0.00 0.06 0.00 74 1012.5
20260504100503 69 171 5.2 10.4 0.00 0.06 0.00 67 1012.3
20260504082003 65 305 2.6 7.0 0.00 0.06 0.00 72 1012.6
20260504081503 64 317 2.6 7.0 0.00 0.06 0.00 73 1012.5
20260504081003 65 29 1.7 4.3 0.00 0.06 0.00 71 1012.7
20260504080503 65 344 1.7 4.3 0.00 0.06 0.00 72 1012.7
20260504050503 58 330 0.9 2.6 0.00 0.06 0.00 93 1013.6
20260504050003 58 322 1.7 2.6 0.00 0.06 0.00 93 1013.4
20260504045718 58 314 1.7 2.6 0.00 0.06 0.00 93 1013.2
20260504045003 57 359 1.7 2.6 0.00 0.06 0.00 93 1013.3
20260504044504 57 12 0.9 3.5 0.00 0.06 0.00 93 1013.0
20260504044003 57 349 1.7 4.3 0.00 0.06 0.00 93 1013.2
20260504043503 57 356 2.6 4.3 0.00 0.06 0.00 93 1013.2
20260504043003 57 10 1.7 4.3 0.00 0.06 0.00 93 1013.1
20260504042503 57 19 0.9 2.6 0.00 0.06 0.00 93 1013.3
20260504042003 57 353 0.9 2.6 0.00 0.06 0.00 93 1013.4
20260504041503 58 340 0.9 2.6 0.00 0.06 0.00 93 1013.3
20260504041003 58 356 1.7 2.6 0.00 0.06 0.00 93 1013.4
20260504040718 58 18 0.9 2.6 0.00 0.06 0.00 93 1013.4
20260504040003 58 55 0.9 2.6 0.00 0.06 0.00 93 1013.3
20260504035503 57 33 1.7 3.5 0.00 0.06 0.00 93 1013.5
20260504035003 57 44 0.9 3.5 0.00 0.06 0.00 93 1013.4
20260504034503 58 41 0.9 2.6 0.00 0.06 0.00 93 1013.6
20260504034003 57 28 1.7 2.6 0.00 0.06 0.00 93 1013.7
20260504033503 58 35 0.9 2.6 0.00 0.06 0.00 93 1013.9
20260504033003 58 36 0.9 2.6 0.00 0.06 0.00 93 1013.7
20260504032503 58 24 0.9 1.7 0.00 0.06 0.00 93 1013.8
20260504032217 58 47 0.0 1.7 0.00 0.06 0.00 93 1013.6
20260504031503 57 305 0.9 3.5 0.00 0.06 0.00 93 1013.6
20260504031003 58 303 1.7 3.5 0.00 0.06 0.00 93 1013.7
20260504030503 57 315 1.7 3.5 0.00 0.06 0.00 93 1013.6
20260504030003 57 314 1.7 3.5 0.00 0.06 0.00 93 1013.7
20260504025503 57 299 0.9 3.5 0.00 0.06 0.00 93 1013.8
20260504025003 57 289 0.9 3.5 0.00 0.06 0.00 93 1013.6
20260504024503 58 6 0.9 2.6 0.00 0.06 0.00 93 1013.6
20260504024003 57 36 0.9 2.6 0.00 0.06 0.00 93 1013.6
20260504023717 57 33 0.9 2.6 0.00 0.06 0.00 93 1013.4
20260504023003 57 40 0.9 2.6 0.00 0.06 0.00 93 1013.8
20260504022503 57 17 0.9 1.7 0.00 0.06 0.00 93 1013.7
20260504022218 57 19 0.9 1.7 0.00 0.06 0.00 93 1013.5
20260504021503 57 306 0.9 2.6 0.00 0.06 0.00 93 1013.6
20260504021003 57 333 1.7 3.5 0.00 0.06 0.00 93 1013.7
20260504020503 58 27 1.7 3.5 0.00 0.06 0.00 93 1013.6
20260504020003 57 43 1.7 3.5 0.00 0.06 0.00 93 1013.5
20260504015503 57 50 0.9 3.5 0.00 0.06 0.00 93 1013.7
20260504015003 57 41 0.9 3.5 0.00 0.06 0.00 93 1013.8
20260504014503 57 26 0.9 3.5 0.00 0.06 0.00 93 1013.9
20260504014003 57 19 1.7 3.5 0.00 0.06 0.00 93 1013.8
20260504013503 57 31 1.7 3.5 0.00 0.06 0.00 93 1013.9
20260504013003 57 46 1.7 3.5 0.00 0.06 0.00 93 1014.0
20260504012717 57 47 1.7 3.5 0.00 0.06 0.00 93 1013.6
20260504012003 57 311 0.9 2.6 0.00 0.06 0.00 93 1013.8
20260504011503 57 329 0.9 2.6 0.00 0.06 0.00 93 1014.1
20260504011003 57 335 0.9 2.6 0.00 0.06 0.00 93 1013.9
20260504010503 57 320 0.9 2.6 0.00 0.06 0.00 93 1014.2
20260504010003 57 300 0.9 2.6 0.00 0.06 0.00 93 1014.0
20260504005717 57 305 0.9 2.6 0.00 0.06 0.00 93 1014.1
20260504005003 57 337 0.9 2.6 0.00 0.06 0.00 93 1014.2
20260504004503 57 69 0.9 3.5 0.00 0.06 0.00 93 1014.3
20260504004003 57 61 0.9 3.5 0.00 0.06 0.00 93 1014.4
20260504003503 57 20 0.9 2.6 0.00 0.06 0.00 93 1014.2
20260504003003 57 268 0.9 2.6 0.00 0.06 0.00 93 1014.4
20260504002503 57 296 0.9 2.6 0.00 0.06 0.00 92 1014.4
20260504002003 57 332 1.7 3.5 0.00 0.06 0.00 93 1014.5
20260504001503 57 324 1.7 3.5 0.00 0.06 0.00 92 1014.3
20260504001217 57 321 1.7 3.5 0.00 0.06 0.00 92 1014.5
20260504000503 57 93 0.9 2.6 0.00 0.06 0.00 92 1014.4
20260504000219 57 79 0.9 2.6 0.00 0.06 0.00 92 1014.3
20260503235503 57 312 0.9 2.6 0.00 0.06 0.00 92 1014.5
20260503235003 57 283 0.9 2.6 0.00 0.06 0.00 92 1014.6
20260503234503 57 294 0.9 3.5 0.00 0.06 0.00 92 1014.5
20260503234003 57 330 0.9 3.5 0.00 0.06 0.00 92 1014.7
20260503233503 57 339 0.9 2.6 0.00 0.06 0.00 92 1014.6
20260503233003 57 339 0.9 2.6 0.00 0.06 0.00 92 1014.7
20260503232718 58 346 0.9 2.6 0.00 0.06 0.00 92 1014.6
20260503232003 57 327 1.7 2.6 0.00 0.06 0.00 92 1014.6
20260503231503 58 314 1.7 2.6 0.00 0.06 0.00 92 1014.8
20260503231003 58 319 1.7 2.6 0.00 0.06 0.00 92 1014.9
20260503230718 58 319 1.7 2.6 0.00 0.06 0.00 92 1014.6
20260503230217 58 300 0.9 2.6 0.00 0.06 0.00 92 1014.6
20260503225718 58 291 0.9 2.6 0.00 0.06 0.00 92 1014.9
20260503225003 58 303 0.9 2.6 0.00 0.06 0.00 92 1014.9
20260503224503 58 320 1.7 3.5 0.00 0.06 0.00 92 1014.9
20260503224217 58 326 1.7 3.5 0.00 0.06 0.00 92 1014.9
20260503223503 58 312 2.6 4.3 0.00 0.06 0.00 92 1014.9
20260503223003 58 296 1.7 4.3 0.00 0.06 0.00 92 1014.9
20260503222718 58 306 1.7 3.5 0.00 0.06 0.00 92 1014.9
20260503222003 58 330 1.7 3.5 0.00 0.06 0.00 92 1014.8
20260503221503 58 310 1.7 3.5 0.00 0.06 0.00 92 1015.0
20260503221003 58 294 0.9 3.5 0.00 0.06 0.00 92 1015.0
20260503220503 58 10 0.9 3.5 0.00 0.06 0.00 92 1015.0
20260503220003 58 340 1.7 3.5 0.00 0.06 0.00 92 1014.7
20260503215718 58 333 1.7 3.5 0.00 0.06 0.06 92 1015.0
20260503215003 58 309 1.7 2.6 0.00 0.06 0.06 92 1015.0
20260503214503 58 306 1.7 3.5 0.01 0.06 0.06 92 1015.1
20260503214003 58 340 1.7 3.5 0.01 0.06 0.06 91 1015.1
20260503213503 58 333 0.9 2.6 0.01 0.06 0.06 91 1015.2
20260503213003 58 325 1.7 3.5 0.01 0.06 0.06 91 1015.3
20260503212717 58 329 1.7 3.5 0.01 0.06 0.06 91 1015.1
20260503212003 58 311 1.7 3.5 0.02 0.06 0.06 91 1015.3
20260503211503 58 298 1.7 3.5 0.02 0.06 0.06 91 1015.1
20260503211003 58 312 1.7 4.3 0.02 0.06 0.06 91 1015.0
20260503210503 58 323 1.7 4.3 0.02 0.06 0.06 91 1015.0
20260503210218 58 103 0.9 3.5 0.03 0.06 0.06 91 1015.0
20260503205717 58 124 1.7 3.5 0.03 0.06 0.06 91 1015.1
20260503205003 58 84 1.7 3.5 0.03 0.06 0.06 91 1015.4
20260503204503 58 21 1.7 3.5 0.03 0.06 0.06 90 1015.5
20260503204003 58 330 1.7 4.3 0.03 0.06 0.06 90 1015.3
20260503203503 58 338 2.6 4.3 0.03 0.05 0.05 90 1015.4
20260503203003 58 340 2.6 4.3 0.03 0.05 0.05 90 1015.2
20260503202503 58 308 1.7 4.3 0.03 0.05 0.05 90 1015.2
20260503202003 58 238 0.9 3.5 0.02 0.05 0.05 89 1015.5
20260503201503 58 314 0.9 3.5 0.02 0.04 0.04 89 1015.3
20260503201003 58 13 1.7 3.5 0.02 0.04 0.04 89 1015.0
20260503200503 58 15 1.7 3.5 0.01 0.04 0.04 89 1015.1
20260503200003 58 23 1.7 3.5 0.01 0.03 0.03 89 1015.3
20260503195503 58 38 0.9 2.6 0.01 0.03 0.03 89 1015.2
20260503195003 58 78 0.9 3.5 0.01 0.03 0.03 88 1015.1
20260503194503 58 37 1.7 3.5 0.00 0.03 0.03 88 1015.0
20260503194003 58 326 0.9 3.5 0.01 0.03 0.03 88 1015.0
20260503193717 59 316 0.9 3.5 0.01 0.03 0.03 88 1014.8
20260503193003 58 3 1.7 3.5 0.02 0.02 0.02 88 1014.7
20260503192503 59 29 1.7 3.5 0.02 0.02 0.02 88 1014.6
20260503192218 59 43 1.7 3.5 0.02 0.02 0.02 87 1014.7
20260503191503 59 51 0.9 2.6 0.02 0.02 0.02 87 1015.0
20260503191003 59 15 1.7 3.5 0.02 0.02 0.02 87 1015.0
20260503190503 59 345 1.7 3.5 0.02 0.02 0.02 87 1014.9
20260503190217 59 347 1.7 3.5 0.02 0.02 0.02 87 1015.0
20260503185503 60 345 1.7 2.6 0.02 0.02 0.02 86 1014.9
20260503185217 60 349 1.7 2.6 0.02 0.02 0.02 86 1014.9
20260503184716 60 29 1.7 3.5 0.02 0.02 0.02 85 1015.0
20260503184003 60 13 1.7 3.5 0.02 0.02 0.02 83 1015.0
20260503183503 61 84 0.9 2.6 0.01 0.01 0.01 82 1014.7
20260503183003 61 129 0.9 1.7 0.01 0.01 0.01 81 1014.6
20260503182503 61 169 0.9 1.7 0.00 0.00 0.00 80 1014.5
20260503182003 61 147 0.9 3.5 0.00 0.00 0.00 79 1014.6
20260503181504 61 121 0.9 3.5 0.00 0.00 0.00 79 1014.5
20260503181003 61 106 1.7 5.2 0.00 0.00 0.00 79 1014.6
20260503180503 61 112 1.7 5.2 0.00 0.00 0.00 80 1014.7
20260503180003 61 132 1.7 2.6 0.00 0.00 0.00 80 1014.5
20260503175503 61 116 1.7 5.2 0.00 0.00 0.00 80 1014.4
20260503175003 61 106 2.6 5.2 0.00 0.00 0.00 81 1014.4
20260503174503 61 100 2.6 6.1 0.00 0.00 0.00 81 1014.6